Stündliche Wetter Abertamy

Heute, 21 Juni, Montag

Zeit Temperatur Niederschläge Wind Luftdruck Luftfeuchtigkeit
00:00 +17°C° 0.2 mm 2 m/S 681 mmHg 89%
01:00 +17°C° 0.2 mm 3 m/S 680 mmHg 90%
02:00 +17°C° 0.5 mm 2 m/S 680 mmHg 92%
03:00 +16°C° 0.5 mm 2 m/S 680 mmHg 93%
04:00 +16°C° 0.5 mm 1 m/S 680 mmHg 95%
05:00 +16°C° 0 mm 1 m/S 681 mmHg 92%
06:00 +17°C° 0 mm 2 m/S 681 mmHg 90%
07:00 +17°C° 0 mm 2 m/S 682 mmHg 87%
08:00 +19°C° 0 mm 3 m/S 682 mmHg 78%
09:00 +21°C° 0 mm 3 m/S 682 mmHg 69%
10:00 +22°C° 0 mm 3 m/S 683 mmHg 60%
11:00 +24°C° 0 mm 3 m/S 683 mmHg 56%
12:00 +24°C° 0 mm 3 m/S 683 mmHg 53%
13:00 +25°C° 0 mm 3 m/S 683 mmHg 50%
14:00 +25°C° 0 mm 3 m/S 683 mmHg 49%
15:00 +25°C° 0 mm 3 m/S 683 mmHg 48%
16:00 +26°C° 0 mm 3 m/S 683 mmHg 47%
17:00 +24°C° 0 mm 3 m/S 683 mmHg 54%
18:00 +23°C° 0 mm 2 m/S 682 mmHg 61%
19:00 +21°C° 0 mm 2 m/S 682 mmHg 69%
20:00 +19°C° 0.2 mm 2 m/S 682 mmHg 76%
21:00 +19°C° 0.2 mm 1 m/S 682 mmHg 83%
22:00 +16°C° 0.2 mm 1 m/S 683 mmHg 90%
23:00 +16°C° 0.1 mm 1 m/S 682 mmHg 91%

Morgen, 22 Juni, Dienstag

Zeit Temperatur Niederschläge Wind Luftdruck Luftfeuchtigkeit
00:00 +15°C° 0.1 mm 1 m/S 682 mmHg 92%
01:00 +15°C° 0.1 mm 1 m/S 682 mmHg 93%
02:00 +15°C° 0.2 mm 1 m/S 682 mmHg 94%
03:00 +15°C° 0.2 mm 2 m/S 682 mmHg 96%
04:00 +15°C° 0.2 mm 2 m/S 682 mmHg 97%
05:00 +14°C° 2.9 mm 2 m/S 683 mmHg 97%
06:00 +14°C° 2.9 mm 2 m/S 683 mmHg 97%
07:00 +13°C° 2.9 mm 3 m/S 683 mmHg 97%
08:00 +13°C° 1.6 mm 2 m/S 683 mmHg 97%
09:00 +13°C° 1.6 mm 2 m/S 683 mmHg 97%
10:00 +13°C° 1.6 mm 2 m/S 684 mmHg 97%
11:00 +13°C° 2.3 mm 2 m/S 684 mmHg 97%
12:00 +12°C° 2.3 mm 2 m/S 684 mmHg 97%
13:00 +12°C° 2.3 mm 2 m/S 684 mmHg 97%
14:00 +12°C° 0.6 mm 2 m/S 684 mmHg 97%
15:00 +12°C° 0.6 mm 2 m/S 684 mmHg 97%
16:00 +12°C° 0.6 mm 2 m/S 685 mmHg 97%
17:00 +12°C° 0 mm 2 m/S 685 mmHg 97%
18:00 +12°C° 0 mm 2 m/S 685 mmHg 97%
19:00 +12°C° 0 mm 2 m/S 685 mmHg 97%
20:00 +12°C° 0 mm 2 m/S 685 mmHg 97%
21:00 +12°C° 0 mm 2 m/S 685 mmHg 97%
22:00 +12°C° 0 mm 1 m/S 685 mmHg 97%
23:00 +12°C° 0 mm 1 m/S 686 mmHg 97%

übermorgen, 23 Juni, Mittwoch

Zeit Temperatur Niederschläge Wind Luftdruck Luftfeuchtigkeit
00:00 +12°C° 0 mm 1 m/S 686 mmHg 97%
01:00 +12°C° 0 mm 1 m/S 686 mmHg 97%
02:00 +12°C° 0.1 mm 1 m/S 686 mmHg 97%
03:00 +12°C° 0.1 mm 1 m/S 686 mmHg 98%
04:00 +12°C° 0.1 mm 1 m/S 686 mmHg 98%
05:00 +12°C° 0.2 mm 1 m/S 686 mmHg 98%
06:00 +12°C° 0.2 mm 1 m/S 686 mmHg 97%
07:00 +12°C° 0.2 mm 1 m/S 687 mmHg 97%
08:00 +12°C° 0.3 mm 1 m/S 687 mmHg 96%
09:00 +12°C° 0.3 mm 1 m/S 687 mmHg 96%
10:00 +13°C° 0.3 mm 1 m/S 688 mmHg 95%
11:00 +13°C° 0.2 mm 1 m/S 688 mmHg 95%
12:00 +13°C° 0.2 mm 1 m/S 688 mmHg 94%
13:00 +13°C° 0.2 mm 1 m/S 688 mmHg 94%
14:00 +13°C° 0.1 mm 1 m/S 688 mmHg 94%
15:00 +13°C° 0.1 mm 1 m/S 688 mmHg 94%
16:00 +13°C° 0.1 mm 1 m/S 688 mmHg 94%
17:00 +13°C° 0 mm 1 m/S 688 mmHg 94%
18:00 +13°C° 0 mm 1 m/S 688 mmHg 95%
19:00 +13°C° 0 mm 1 m/S 688 mmHg 95%
20:00 +12°C° 0.1 mm 1 m/S 688 mmHg 96%
21:00 +12°C° 0.1 mm 1 m/S 688 mmHg 97%
22:00 +12°C° 0.1 mm 1 m/S 688 mmHg 97%
23:00 +12°C° 0 mm 1 m/S 688 mmHg 97%

24 Juni, Donnerstag

Zeit Temperatur Niederschläge Wind Luftdruck Luftfeuchtigkeit
00:00 +11°C° 0 mm 1 m/S 687 mmHg 98%
01:00 +11°C° 0 mm 1 m/S 687 mmHg 98%
02:00 +11°C° 0 mm 1 m/S 687 mmHg 98%
03:00 +11°C° 0 mm 1 m/S 687 mmHg 98%
04:00 +10°C° 0 mm 1 m/S 687 mmHg 98%
05:00 +11°C° 0.1 mm 1 m/S 687 mmHg 96%
06:00 +12°C° 0.1 mm 1 m/S 687 mmHg 95%
07:00 +13°C° 0.1 mm 1 m/S 687 mmHg 94%
08:00 +14°C° 0 mm 1 m/S 688 mmHg 89%
09:00 +15°C° 0 mm 1 m/S 688 mmHg 84%
10:00 +16°C° 0 mm 1 m/S 688 mmHg 79%
11:00 +18°C° 0 mm 1 m/S 688 mmHg 75%
12:00 +19°C° 0 mm 1 m/S 688 mmHg 72%
13:00 +20°C° 0 mm 1 m/S 688 mmHg 68%
14:00 +19°C° 0.1 mm 2 m/S 688 mmHg 73%
15:00 +18°C° 0.1 mm 2 m/S 688 mmHg 78%
16:00 +17°C° 0.1 mm 2 m/S 688 mmHg 83%
17:00 +17°C° 0.2 mm 2 m/S 687 mmHg 84%
18:00 +17°C° 0.2 mm 2 m/S 687 mmHg 85%
19:00 +16°C° 0.2 mm 2 m/S 687 mmHg 87%
20:00 +16°C° 1.7 mm 2 m/S 686 mmHg 90%
21:00 +15°C° 1.7 mm 2 m/S 686 mmHg 94%
22:00 +14°C° 1.7 mm 2 m/S 686 mmHg 98%
23:00 +13°C° 0.2 mm 2 m/S 686 mmHg 98%

25 Juni, Freitag

Zeit Temperatur Niederschläge Wind Luftdruck Luftfeuchtigkeit
00:00 +13°C° 0.2 mm 1 m/S 686 mmHg 98%
01:00 +13°C° 0.2 mm 1 m/S 686 mmHg 98%
02:00 +13°C° 0.1 mm 1 m/S 686 mmHg 98%
03:00 +13°C° 0.1 mm 1 m/S 686 mmHg 98%
04:00 +13°C° 0.1 mm 1 m/S 686 mmHg 98%
05:00 +13°C° 0.3 mm 1 m/S 686 mmHg 98%
06:00 +13°C° 0.3 mm 1 m/S 686 mmHg 98%
07:00 +13°C° 0.3 mm 2 m/S 686 mmHg 97%
08:00 +13°C° 0.1 mm 2 m/S 686 mmHg 97%
09:00 +13°C° 0.1 mm 2 m/S 687 mmHg 96%
10:00 +13°C° 0.1 mm 2 m/S 687 mmHg 96%
11:00 +14°C° 0.1 mm 2 m/S 687 mmHg 93%
12:00 +14°C° 0.1 mm 2 m/S 687 mmHg 90%
13:00 +15°C° 0.1 mm 2 m/S 687 mmHg 86%
14:00 +16°C° 0.3 mm 2 m/S 687 mmHg 85%
15:00 +16°C° 0.3 mm 2 m/S 687 mmHg 83%
16:00 +16°C° 0.3 mm 2 m/S 687 mmHg 81%
17:00 +16°C° 0.6 mm 2 m/S 687 mmHg 84%
18:00 +15°C° 0.6 mm 2 m/S 687 mmHg 88%
19:00 +15°C° 0.6 mm 2 m/S 687 mmHg 91%
20:00 +14°C° 0.1 mm 1 m/S 687 mmHg 93%
21:00 +13°C° 0.1 mm 1 m/S 687 mmHg 94%
22:00 +12°C° 0.1 mm 1 m/S 687 mmHg 96%
23:00 +11°C° 0 mm 1 m/S 687 mmHg 96%

26 Juni, Samstag

Zeit Temperatur Niederschläge Wind Luftdruck Luftfeuchtigkeit
00:00 +11°C° 0 mm 1 m/S 687 mmHg 97%
01:00 +11°C° 0 mm 1 m/S 687 mmHg 97%
02:00 +11°C° 0 mm 1 m/S 687 mmHg 97%
03:00 +11°C° 0 mm 1 m/S 687 mmHg 97%
04:00 +11°C° 0 mm 1 m/S 687 mmHg 97%
05:00 +11°C° 0 mm 1 m/S 688 mmHg 97%
06:00 +12°C° 0 mm 2 m/S 688 mmHg 96%
07:00 +12°C° 0 mm 2 m/S 688 mmHg 95%
08:00 +13°C° 0.1 mm 2 m/S 688 mmHg 89%
09:00 +13°C° 0.1 mm 3 m/S 689 mmHg 83%
10:00 +16°C° 0.1 mm 3 m/S 689 mmHg 77%
11:00 +15°C° 0.1 mm 4 m/S 689 mmHg 75%
12:00 +15°C° 0.1 mm 4 m/S 689 mmHg 73%
13:00 +17°C° 0.1 mm 4 m/S 689 mmHg 71%
14:00 +17°C° 0.2 mm 4 m/S 689 mmHg 73%
15:00 +17°C° 0.2 mm 4 m/S 689 mmHg 74%
16:00 +17°C° 0.2 mm 4 m/S 689 mmHg 75%
17:00 +15°C° 0.3 mm 4 m/S 688 mmHg 79%
18:00 +14°C° 0.3 mm 3 m/S 688 mmHg 83%
19:00 +15°C° 0.3 mm 2 m/S 688 mmHg 87%
20:00 +14°C° 0.1 mm 2 m/S 688 mmHg 90%
21:00 +13°C° 0.1 mm 2 m/S 688 mmHg 93%
22:00 +12°C° 0.1 mm 1 m/S 688 mmHg 96%
23:00 +12°C° 0.1 mm 1 m/S 689 mmHg 96%
Mehr zeigen

Wir brauchen deine Erlaubnis

Meteoprog und unser Service Anbieter werden persönliche Daten aufbewahren, so wie Cookies, Geräte Bezeichnung oder ähnliche Technologien von deinem Gerät und Prozess, so wie Persönliche Daten Inhalte und Werbungen, genauso wie social Media und den Verkehr zu analysieren.

  • Aufbewahrung und/oder Zugang zu deiner Geräte Informationen.

    Cookies, Geräte Bezeichnung oder andere Informationen, können aufbewahrt oder Zugang zu deinem Gerät erhalten, für den Grund, der oben angegeben wird.

  • Personalisierte Werbung und Inhalte, Messungen, Einblick in das Publikum und Produkt Entwicklung.

    Werbungen und Inhalte können personalisiert werden, basierend auf ein Profil. Mehr Daten können besser personalisierte Werbungen und Inhalte hinzufügen. Werbung und Inhalte können gezeigt und gemessen werden. Einblicke über das Publikum, welche die Werbung gesehen haben und den Inhalt, können abgeleitet werden. So wie Daten können genutzt werden, um es zu verbessern oder die Benutzer Erfahrung zu verbessern das System und die Software.

Wenn du “Ich stimme zu” klickst, erlaubst du uns, die Cookies zu benutzen die Geräte Bezeichnung, den Web oder ähnliche Technologien zu benutzen. Deine Settings, können in deinem Gerät bei deinem Browser geändert werden.

Für den bestimmten Zweck, berechtigten Interessen beruhen darauf, mehr als auf den Inhalt. Du kannst mehr darüber in unseren Privaten und Cookie Politik lesen.